Wind_Speed
3 4 7 12 7 6 5 3 5 3 6 4 7 4 8 16 22 22 26 30 35 34 29 29 27 33 32 26 24 22 21 18 15 17 23 20 16 12 8 6 1 3 4 6
6 5 9 7 10 4 2 2 8 2 6 5 6 9 6 18 22 30 30 31 36 34 32 31 30 32 36 31 27 26 23 20 18 15 15 21 18 13 10 8 4 4 5 4
6 6 6 4 4 5 2 5 6 5 1 3 3 8 2 5 10 25 31 35 37 36 34 31 30 35 36 33 28 27 27 24 21 18 13 19 21 15 13 12 11 7 5 2
5 5 6 4 6 7 6 10 11 9 2 3 2 4 6 6 8 10 25 32 35 37 34 31 31 35 37 32 28 27 27 26 23 20 19 18 21 21 16 11 11 8 5 3
8 7 5 4 10 6 12 10 14 12 5 3 2 3 7 5 7 9 20 28 30 39 36 35 35 35 36 32 31 29 25 25 24 24 21 17 20 22 16 11 9 10 8 7
6 0 7 10 8 11 1 6 8 5 4 2 6 6 7 4 11 7 12 27 26 29 37 38 35 34 37 36 34 35 29 24 24 25 23 20 20 22 18 14 12 12 10 10
5 3 3 3 1 4 6 7 3 3 2 6 3 4 10 7 8 9 13 27 28 26 31 41 41 39 38 40 36 36 34 27 25 26 25 23 20 21 19 15 14 11 8 12
5 6 6 4 8 9 7 9 6 6 4 5 2 6 7 7 9 17 24 20 19 24 29 39 44 42 41 42 39 34 38 32 28 27 27 25 22 21 18 16 15 13 10 9
5 5 3 4 5 8 4 3 4 7 3 2 3 7 6 8 3 6 19 24 21 19 31 37 45 43 43 43 42 36 36 35 30 30 26 27 25 25 23 19 18 16 13 12
4 1 4 3 3 3 6 7 3 4 4 2 5 4 4 5 6 3 6 6 9 24 32 38 37 42 42 42 40 39 37 35 26 32 29 27 26 26 25 23 21 18 16 15
5 4 6 3 2 9 2 3 6 6 5 5 2 5 5 5 3 8 7 11 6 9 19 27 32 38 41 40 39 39 38 37 32 35 31 29 26 24 25 25 23 22 19 17
7 5 4 12 4 3 5 6 6 5 4 1 4 5 1 3 6 6 14 8 20 14 19 25 29 33 37 38 38 36 36 31 33 34 33 29 26 26 25 25 24 25 24 21
8 1 2 11 6 3 4 5 5 5 4 6 5 5 2 8 7 22 25 14 14 15 16 22 26 28 32 34 34 37 38 42 32 35 33 32 29 27 28 27 25 24 25 26
13 4 7 7 7 2 2 5 5 6 5 6 5 5 5 5 9 17 12 20 23 21 18 14 16 16 16 20 25 29 32 32 34 34 33 31 30 30 30 30 29 27 26 26
7 5 5 6 1 0 3 3 8 6 6 7 7 9 8 9 10 9 17 21 22 20 19 17 16 14 10 6 7 14 21 26 26 30 33 33 31 30 31 30 29 30 30 29
1 3 3 6 7 8 7 9 5 3 4 6 7 3 6 7 7 6 15 20 20 22 20 18 16 13 10 6 3 1 3 6 11 19 28 31 34 34 32 30 29 28 31 30
4 6 4 1 3 4 7 6 3 4 3 7 10 7 6 1 4 3 10 21 23 19 19 19 17 15 12 9 6 5 5 5 8 11 13 18 24 29 33 31 28 28 28 26
5 5 2 3 2 5 7 0 5 9 7 5 2 4 6 2 4 5 11 19 19 17 16 16 13 13 13 11 10 8 6 6 8 7 9 11 12 18 25 31 30 29 28 28
3 5 4 4 3 1 3 5 3 4 4 5 6 6 12 2 4 9 18 18 15 16 11 9 8 8 10 10 11 10 10 7 5 7 6 6 7 11 14 18 22 28 30 30
7 7 5 3 5 4 6 3 2 3 4 5 13 9 13 9 4 5 17 20 17 16 12 10 11 9 7 7 10 12 12 10 5 6 6 9 10 12 12 11 15 19 21 26
4 4 4 3 3 4 5 2 2 4 6 3 13 26 19 6 8 7 16 21 18 15 14 14 12 7 3 0 2 7 6 7 6 7 9 9 11 13 14 13 14 16 18 22
4 5 2 3 4 3 1 3 6 6 5 13 10 14 18 20 12 10 19 23 23 20 19 15 8 7 6 7 9 8 6 7 12 17 17 17 16 14 13 15 16 18 20 21
2 4 5 4 4 4 4 2 10 14 17 16 14 11 10 15 17 15 21 24 23 22 18 13 10 12 14 13 13 12 6 8 15 19 20 22 21 19 18 18 17 19 20 21
2 3 4 4 7 6 8 14 14 12 7 12 7 6 6 13 19 14 15 20 22 20 17 18 20 18 15 16 14 10 10 10 16 20 20 18 20 18 19 21 21 20 21 22
2 2 4 3 3 20 17 18 20 19 15 10 11 6 4 7 16 18 17 19 22 22 24 22 19 17 17 15 13 12 10 15 19 20 20 20 21 17 19 23 21 20 22 24
1 5 4 4 4 18 12 19 18 19 16 15 14 14 14 11 12 8 10 14 16 16 17 18 18 16 14 14 10 9 13 16 18 21 23 23 22 21 22 23 22 21 18 20
Wind_Direction
87 113 167 189 187 205 139 212 274 163 195 130 217 258 226 184 189 202 208 209 207 212 214 222 222 214 204 208 211 210 204 202 201 211 214 218 221 239 230 233 260 239 254 223
26 209 230 133 166 183 221 274 280 260 176 159 193 252 214 192 198 198 206 213 213 216 221 223 223 217 209 212 211 213 213 212 215 218 221 215 216 236 247 242 247 250 283 229
158 229 201 149 153 144 217 195 273 209 129 335 61 328 151 217 203 200 211 217 217 219 222 226 220 212 208 210 214 216 217 220 221 215 209 212 216 230 224 234 243 236 225 238
212 232 180 175 232 139 247 187 228 239 168 212 96 275 286 237 196 192 203 211 218 220 222 227 218 208 210 215 218 221 221 223 223 215 216 216 215 221 219 235 239 223 234 239
240 172 157 180 227 141 235 162 205 233 86 25 17 64 270 360 259 207 223 215 218 221 217 219 217 214 213 214 219 224 220 227 226 218 218 221 222 221 231 234 234 239 236 244
237 240 153 212 226 177 81 62 36 61 100 359 196 156 282 198 220 233 215 231 222 218 219 219 221 217 217 216 221 223 220 225 227 225 221 220 223 223 238 244 258 260 246 231
323 242 255 176 137 29 81 76 18 8 360 225 86 121 244 261 238 213 213 227 225 220 219 218 214 216 218 218 221 226 223 223 227 226 225 221 223 230 238 244 254 270 241 225
160 318 180 180 185 191 182 157 150 184 180 246 136 234 257 281 232 242 246 244 224 206 216 221 218 220 226 221 225 228 226 226 227 227 227 225 225 227 233 234 240 246 264 235
140 267 288 214 182 140 200 188 180 104 11 76 246 297 324 345 10 331 246 239 224 231 216 220 219 222 226 226 226 229 227 229 233 230 230 229 230 231 234 234 236 241 245 233
188 257 221 274 173 55 161 160 73 20 129 232 285 279 237 313 342 16 34 356 261 232 214 209 214 221 229 234 232 228 230 234 244 230 233 233 232 236 239 239 238 238 240 238
134 108 281 24 209 192 118 128 46 111 121 163 215 263 201 267 305 322 24 77 101 174 194 202 218 225 229 233 235 234 230 234 243 234 235 236 235 237 241 243 243 242 241 241
200 144 219 235 214 225 132 154 131 122 229 168 154 272 118 242 154 49 293 149 104 125 173 199 219 227 226 234 238 239 228 235 239 231 241 233 239 238 240 243 244 245 244 242
177 232 12 329 352 347 153 152 117 113 85 182 141 253 49 7 137 223 228 104 96 105 157 192 216 227 232 235 241 243 238 227 225 233 235 235 238 241 242 242 245 244 244 242
136 127 156 190 215 197 202 140 162 126 123 170 216 190 201 193 211 218 123 98 100 99 107 136 187 216 225 238 248 252 250 245 238 237 238 243 246 246 249 250 247 247 247 244
124 155 169 233 160 240 70 9 172 178 175 151 213 196 192 192 209 201 106 104 105 100 103 110 110 109 113 140 223 250 259 259 256 252 247 245 249 252 254 256 254 249 248 248
172 168 130 32 138 112 71 28 49 114 138 76 104 193 213 204 262 216 137 135 131 127 123 117 110 110 116 128 133 168 277 277 267 261 258 257 254 254 254 261 262 252 248 250
97 125 100 199 281 354 24 342 342 88 333 143 155 224 127 250 293 255 178 151 139 133 146 144 138 125 122 113 96 62 29 341 294 282 281 269 261 260 256 259 265 261 256 258
122 98 96 177 24 62 244 358 13 107 103 38 360 105 116 355 204 270 202 159 149 147 159 147 125 115 117 108 93 71 50 15 338 311 287 282 280 272 259 260 264 265 262 256
64 124 79 135 91 359 333 325 142 137 175 189 166 142 182 100 269 250 185 186 159 164 161 154 148 130 109 79 57 48 33 29 19 357 360 354 321 284 266 263 258 255 256 256
66 73 105 95 102 168 237 266 331 280 16 146 130 143 163 192 156 233 187 174 165 168 179 178 168 143 101 52 26 7 3 354 355 356 341 330 318 308 300 293 269 259 256 250
41 22 101 91 116 300 263 295 49 82 229 220 177 177 185 186 202 198 187 179 170 170 168 163 156 150 167 184 314 3 348 325 313 321 324 321 316 291 291 284 276 271 271 264
129 119 136 100 91 139 285 312 166 193 184 177 177 187 195 217 220 212 188 183 176 175 173 172 184 209 230 260 259 258 257 293 324 319 310 306 302 301 294 278 269 265 268 264
55 174 149 151 199 276 316 191 151 141 148 160 180 193 216 220 217 187 189 185 182 187 187 201 219 242 249 250 250 247 272 300 316 320 306 299 293 288 285 288 291 267 261 266
12 170 91 88 342 356 101 127 110 106 123 158 166 130 198 224 219 217 222 203 199 200 213 222 225 229 241 244 233 242 289 300 310 317 316 310 305 285 280 290 290 280 265 264
193 86 121 87 219 80 92 118 114 100 96 105 87 58 339 262 235 244 250 224 210 217 221 222 224 236 240 239 248 264 286 299 308 311 310 310 312 291 289 293 291 285 270 261
285 157 136 188 174 121 110 123 117 110 108 108 109 101 96 100 99 156 207 229 233 240 221 215 224 230 239 252 253 274 287 296 298 298 301 302 299 299 289 292 291 292 281 270
Height
1495 1504 1517 1512 1511 1507 1513 1517 1518 1512 1506 1511 1516 1515 1513 1512 1516 1519 1520 1522 1523 1525 1529 1532 1536 1538 1543 1547 1550 1552 1555 1557 1559 1561 1563 1565 1567 1567 1569 1570 1571 1570 1571 1571
1502 1510 1497 1501 1505 1506 1508 1516 1516 1507 1503 1506 1510 1511 1505 1506 1505 1510 1514 1518 1519 1522 1525 1529 1533 1535 1539 1543 1546 1550 1552 1554 1557 1560 1562 1564 1566 1567 1568 1569 1569 1570 1570 1570
1508 1498 1493 1498 1505 1512 1513 1519 1516 1514 1506 1504 1507 1514 1507 1504 1504 1506 1509 1512 1516 1518 1521 1524 1528 1531 1536 1540 1543 1546 1548 1552 1555 1558 1561 1563 1565 1566 1567 1568 1569 1570 1570 1571
1499 1490 1493 1500 1504 1507 1521 1505 1504 1504 1517 1531 1508 1546 1514 1502 1501 1500 1501 1505 1510 1515 1517 1520 1524 1529 1533 1536 1540 1543 1546 1549 1553 1557 1558 1560 1561 1563 1566 1567 1568 1570 1571 1572
1497 1491 1495 1499 1495 1497 1505 1498 1501 1500 1528 1524 1524 1540 1514 1505 1503 1500 1496 1498 1502 1507 1512 1515 1519 1524 1529 1534 1537 1539 1543 1546 1549 1552 1555 1557 1559 1561 1564 1566 1567 1568 1570 1570
1488 1484 1487 1487 1485 1491 1489 1501 1509 1518 1528 1550 1527 1532 1523 1510 1492 1486 1491 1490 1497 1501 1508 1512 1518 1522 1527 1532 1534 1537 1540 1543 1546 1549 1552 1555 1556 1559 1561 1563 1565 1566 1567 1568
1491 1487 1481 1479 1487 1486 1498 1515 1553 1551 1553 1553 1526 1535 1513 1487 1481 1479 1481 1483 1491 1497 1502 1507 1512 1518 1522 1526 1529 1534 1539 1540 1543 1546 1550 1552 1555 1558 1560 1562 1564 1565 1564 1566
1511 1513 1484 1478 1484 1493 1500 1508 1541 1552 1563 1543 1524 1530 1503 1480 1476 1475 1478 1481 1487 1492 1496 1501 1507 1514 1518 1524 1527 1529 1535 1539 1541 1543 1547 1550 1553 1555 1557 1559 1561 1562 1563 1565
1513 1503 1478 1475 1474 1480 1494 1506 1498 1532 1539 1541 1529 1509 1488 1483 1480 1477 1477 1479 1484 1486 1490 1495 1502 1508 1512 1519 1522 1525 1530 1535 1539 1541 1545 1547 1549 1552 1554 1556 1557 1559 1562 1563
1486 1502 1478 1472 1471 1476 1481 1486 1513 1526 1541 1542 1533 1519 1516 1497 1490 1483 1482 1481 1483 1486 1488 1491 1498 1503 1507 1512 1517 1524 1528 1531 1534 1538 1542 1544 1546 1548 1550 1553 1555 1558 1560 1561
1480 1491 1488 1474 1481 1485 1489 1497 1508 1514 1528 1545 1545 1526 1504 1502 1497 1498 1486 1483 1478 1480 1487 1493 1497 1500 1504 1510 1514 1520 1524 1528 1531 1534 1538 1540 1542 1544 1546 1548 1551 1554 1557 1558
1473 1492 1503 1492 1470 1469 1473 1484 1495 1523 1521 1530 1529 1521 1496 1496 1489 1488 1496 1491 1482 1481 1481 1490 1495 1499 1503 1506 1511 1513 1520 1526 1528 1531 1534 1537 1539 1540 1542 1544 1546 1549 1552 1554
1469 1493 1513 1497 1479 1469 1469 1478 1488 1499 1509 1527 1529 1519 1492 1492 1487 1490 1510 1485 1486 1484 1485 1488 1494 1496 1500 1503 1506 1509 1514 1520 1524 1527 1529 1532 1535 1537 1537 1540 1543 1546 1548 1550
1457 1486 1492 1510 1489 1479 1474 1474 1481 1488 1514 1518 1514 1500 1495 1494 1494 1493 1486 1484 1483 1485 1488 1489 1494 1496 1499 1503 1506 1508 1511 1515 1519 1521 1524 1527 1530 1532 1535 1537 1539 1542 1544 1546
1455 1478 1478 1477 1477 1472 1474 1474 1477 1482 1484 1494 1490 1498 1488 1487 1485 1483 1480 1481 1484 1488 1492 1495 1498 1499 1501 1502 1505 1507 1509 1512 1515 1517 1519 1522 1526 1529 1531 1533 1536 1538 1539 1540
1455 1476 1469 1480 1471 1471 1478 1474 1474 1474 1478 1482 1490 1490 1481 1483 1482 1481 1481 1482 1488 1490 1496 1499 1501 1503 1505 1506 1508 1509 1511 1512 1512 1513 1515 1519 1522 1525 1527 1529 1531 1533 1534 1536
1457 1471 1485 1487 1475 1473 1489 1478 1476 1477 1477 1478 1490 1479 1479 1487 1487 1487 1486 1488 1490 1493 1498 1501 1503 1504 1507 1508 1509 1511 1512 1512 1513 1513 1514 1515 1518 1520 1523 1526 1527 1529 1532 1533
1460 1470 1480 1493 1484 1509 1483 1470 1471 1476 1477 1478 1478 1479 1489 1490 1490 1491 1492 1492 1492 1494 1500 1502 1503 1506 1509 1510 1511 1512 1514 1514 1513 1513 1513 1514 1515 1516 1518 1519 1522 1525 1526 1527
1448 1465 1490 1492 1502 1490 1477 1473 1473 1472 1482 1475 1479 1482 1489 1495 1495 1493 1495 1497 1496 1497 1500 1500 1503 1506 1508 1510 1511 1514 1514 1515 1515 1514 1514 1513 1513 1513 1514 1514 1515 1516 1518 1519
1452 1459 1473 1493 1496 1503 1485 1470 1469 1469 1493 1475 1474 1480 1487 1493 1499 1494 1493 1494 1497 1498 1501 1503 1505 1507 1508 1510 1512 1515 1515 1515 1515 1515 1514 1513 1513 1512 1511 1511 1511 1511 1511 1512
1475 1477 1487 1497 1498 1490 1471 1469 1468 1491 1495 1473 1476 1477 1485 1488 1487 1488 1490 1495 1497 1500 1502 1505 1507 1507 1510 1511 1513 1513 1514 1515 1515 1514 1513 1511 1510 1509 1508 1507 1506 1506 1506 1506
1474 1482 1490 1495 1496 1497 1471 1470 1478 1469 1468 1468 1475 1477 1477 1483 1486 1486 1490 1495 1496 1501 1504 1505 1506 1508 1509 1509 1511 1511 1511 1514 1513 1511 1509 1508 1506 1504 1503 1501 1501 1500 1499 1498
1475 1473 1479 1483 1485 1471 1467 1466 1465 1465 1466 1469 1473 1474 1478 1483 1486 1487 1490 1493 1496 1500 1501 1502 1504 1505 1506 1507 1507 1508 1510 1510 1510 1507 1505 1502 1500 1498 1498 1497 1495 1494 1493 1492
1465 1467 1474 1478 1477 1474 1471 1469 1468 1469 1470 1472 1475 1476 1480 1482 1486 1489 1492 1495 1497 1498 1499 1500 1501 1502 1504 1504 1505 1507 1507 1507 1505 1502 1500 1497 1494 1493 1492 1491 1489 1487 1487 1486
1466 1465 1473 1478 1475 1475 1477 1475 1475 1473 1473 1475 1478 1479 1479 1481 1483 1486 1488 1491 1494 1496 1497 1498 1500 1501 1502 1503 1504 1505 1505 1503 1500 1497 1495 1493 1490 1488 1487 1485 1483 1481 1480 1479
1465 1466 1474 1479 1472 1473 1481 1480 1480 1478 1479 1481 1482 1483 1485 1485 1485 1485 1488 1492 1494 1498 1499 1500 1500 1500 1501 1501 1502 1503 1501 1498 1495 1492 1490 1487 1485 1482 1480 1478 1476 1474 1473 1472